Location: Huntsville
(41.2590°N, 111.7678°W)
Time: 06:33:33
(UTC+00:00)

Vanguard 3 - Pass Details

Date: 14 June 2021
Orbit: 508 x 3261 km, 33.4° (Epoch: 29 July)

Event Time Altitude Azimuth Distance (km) Brightness Sun altitude
Rises 23:43:02 0° 261° (W) 5,201 12.3 34.4°
Reaches altitude 10° 23:49:31 10° 235° (SW) 4,851 11.9 33.2°
Maximum altitude 23:54:18 12° 215° (SW) 5,052 11.7 32.3°
Drops below altitude 10° 23:59:44 10° 195° (SSW) 5,632 11.6 31.3°
Sets 00:09:20 0° 172° (S) 7,088 11.8 29.5°
